Starlink 32474

operational
NORAD ID: 61260 Int'l Des: 2024-175 Owner: SPXS Country: US Constellation: starlink
LEOCIRCULAR

Über Starlink 32474

Beschreibung wird geladen...

Live-Position

3D-Globus wird geladen...

Nächste Überflüge

Höhenverlauf

Altitude vs Time

uPlot chart will show altitude changes over time

Zweizeiliger Elementsatz

1 61260U 24175T 25306.05870529 .00001601 00000-0 66200-4 0 9992
2 61260 53.1612 66.8044 0001215 95.2152 264.8987 15.30189132 61910
Epoch: 2. Nov. 2025 • Age: 17 hours

Aktueller Status

Höhe 477.4 km
Geschwindigkeit 7.63 km/s
Subsatellitenpunkt 35.64°N, 130.6°E
Startdatum 25. Sept. 2024
Alter 1.1 years
Typ internet

Technische Details

Klassifizierung Payload
Masse 730.00 kg
Trockenmasse 700.00 kg
Gesamtmasse 730.00 kg
Länge 0.30 m
Durchmesser 4.10 m
Spannweite 29.00 m
Form Box + pan
Hersteller SPXS
Bus-Typ Starlink V2M
Phasenstatus In Orbit
Besitzer/Staat SPXS/US

Große Konstellationen

Loading constellations...